Weather History for Borger, TX

Change the Weather History Date:

Friday, March 15, 2013

  Actual Average Record
Temperature  
Mean Temperature 63 °F 49 °F  
Max Temperature 85 °F 63 °F 85 °F (2012)
Min Temperature 41 °F 36 °F 19 °F (1949)
Degree Days  
Heating Degree Days 2 16  
Month to date heating degree days 208 270  
Since 1 July heating degree days 2930 3263  
Cooling Degree Days 0 0  
Month to date cooling degree days 0 0  
Year to date cooling degree days 0 0  
Growing Degree Days 13 (Base 50)    
Moisture  
Dew Point 27 °F    
Average Humidity 39    
Maximum Humidity 70    
Minimum Humidity 8    
Precipitation  
Precipitation 0.00 in 0.04 in 1.05 in (1998)
Month to date precipitation 0.02 0.65  
Year to date precipitation 3.07 1.86  
Snow  
Snow 0.00 in - 1.50 in (1969)
Month to date snowfall T  
Since 1 July snowfall 27.2  
Snow Depth 0.00 in    
Sea Level Pressure  
Sea Level Pressure 29.89 in    
Wind  
Wind Speed 6 mph (WSW)    
Max Wind Speed 16 mph    
Max Gust Speed 21 mph    
Visibility 10 miles    
Events      
T = Trace of Precipitation, MM = Missing Value Source: NWS Daily Summary

Daily Weather History Graph

Daily Weather History Graph

Search for Another Location

Airport:

Trip Planner

Search our weather history database for the weather conditions in past years. The results will help you decide how hot, cold, wet, or windy it might be!

Date:

Astronomy

Mar. 15, 2013 Rise Set
Actual Time 7:55 AM CDT 7:53 PM CDT
Civil Twilight 7:30 AM CDT 8:18 PM CDT
Nautical Twilight 7:00 AM CDT 8:48 PM CDT
Astronomical Twilight 6:31 AM CDT 9:18 PM CDT
Moon 9:56 AM CDT (3/15) 11:59 PM CDT (3/15)
Length of Visible Light 12h 48m
Length of Day
11h 57m
Waxing Crescent, 15% of the Moon is Illuminated
Mar 15
Waxing Crescent
Mar 19
First Quarter
Mar 27
Full
Apr 2
Last Quarter
Apr 10
New

Hourly Weather History & Observations

Time (CDT) Temp. Windchill Dew Point Humidity Pressure Visibility Wind Dir Wind Speed Gust Speed Precip Events Conditions
12:51 AM 55.0 °F - 35.1 °F 47% 30.06 in 10.0 mi Calm Calm - N/A   Clear
1:51 AM 51.1 °F - 35.1 °F 54% 30.06 in 10.0 mi Calm Calm - N/A   Clear
2:51 AM 51.1 °F - 36.0 °F 56% 30.04 in 10.0 mi WSW 5.8 mph - N/A   Clear
3:51 AM 51.1 °F - 35.1 °F 54% 30.01 in 10.0 mi Calm Calm - N/A   Clear
4:51 AM 46.9 °F - 35.1 °F 63% 30.00 in 10.0 mi WSW 5.8 mph - N/A   Clear
5:51 AM 46.9 °F - 35.1 °F 63% 29.99 in 10.0 mi West 3.5 mph - N/A   Clear
6:51 AM 43.0 °F 40.3 °F 33.1 °F 68% 30.00 in 10.0 mi West 4.6 mph - N/A   Clear
7:51 AM 42.1 °F 37.7 °F 34.0 °F 73% 30.01 in 10.0 mi SW 6.9 mph - N/A   Clear
8:51 AM 48.9 °F - 30.0 °F 48% 30.00 in 10.0 mi West 8.1 mph - N/A   Clear
9:51 AM 57.0 °F - 28.9 °F 34% 29.97 in 10.0 mi WSW 9.2 mph - N/A   Clear
10:51 AM 64.9 °F - 28.9 °F 26% 29.95 in 10.0 mi West 6.9 mph - N/A   Clear
11:51 AM 71.1 °F - 28.9 °F 21% 29.92 in 10.0 mi WSW 6.9 mph - N/A   Clear
12:51 PM 78.1 °F - 26.1 °F 15% 29.89 in 10.0 mi SW 9.2 mph 19.6 mph N/A   Clear
1:51 PM 80.1 °F - 21.9 °F 12% 29.86 in 10.0 mi WSW 11.5 mph - N/A   Clear
2:51 PM 81.0 °F - 21.0 °F 11% 29.82 in 10.0 mi West 9.2 mph - N/A   Clear
3:51 PM 82.0 °F - 21.9 °F 11% 29.79 in 10.0 mi WNW 6.9 mph - N/A   Clear
4:51 PM 82.9 °F - 21.0 °F 10% 29.77 in 10.0 mi WSW 10.4 mph - N/A   Clear
5:51 PM 84.0 °F - 15.1 °F 8% 29.75 in 10.0 mi West 6.9 mph - N/A   Clear
6:51 PM 82.0 °F - 15.1 °F 8% 29.75 in 10.0 mi West 4.6 mph - N/A   Clear
7:51 PM 80.1 °F - 17.1 °F 9% 29.75 in 10.0 mi Calm Calm - N/A   Clear
8:51 PM 73.0 °F - 19.9 °F 14% 29.74 in 10.0 mi SSW 5.8 mph - N/A   Clear
9:51 PM 69.1 °F - 21.0 °F 16% 29.73 in 10.0 mi South 6.9 mph - N/A   Clear
10:51 PM 70.0 °F - 21.9 °F 16% 29.71 in 10.0 mi SSW 6.9 mph - N/A   Clear
11:51 PM 63.0 °F - 24.1 °F 23% 29.70 in 10.0 mi ESE 3.5 mph - N/A   Clear